Location: Fort Worth, Tx
(32.7431°N, 97.3695°W)
Time: 11:39:46
(UTC-04:00)

Explorer 11/Cluster Stage 4 - Pass Details

Date: 23 February 2024
Orbit: 465 x 1219 km, 28.8° (Epoch: 24 April)

Event Time Altitude Azimuth Distance (km) Brightness Sun altitude
Exits shadow 07:07:54 16° 261° (W) 2,196 8.2 -12.7°
Maximum altitude 07:12:30 43° 197° (SSW) 1,118 7.3 -11.7°
Drops below altitude 10° 07:17:20 10° 126° (SE) 2,153 9.8 -10.7°
Sets 07:19:35 0° 119° (ESE) 2,956 10.9 -10.2°
